This demonstration page uses our WeatherBlox Daily Observations layout. Learn more.

Left ArrowRight Arrow

Hourly Observations for January 8, 2017

Temp ( °F °C ) Dew Point ( °F °C ) Humidity (%) Winds ( mph kmh ) Pressure ( in mb ) Visibility ( mi km ) Precip ( " mm )
12:14 am 00:14 Clear 12 -11 5 -15 73 73 WNW 12 19 30.65 1038 10 16 N/A
12:35 am 00:35 Clear 12 -11 5 -15 73 73 NW 10 17 30.65 1038 10 16 N/A
12:55 am 00:55 Clear 12 -11 3 -16 67 67 NW 14 22 30.65 1038 10 16 N/A
1:15 am 01:15 Clear 10 -12 3 -16 72 72 WNW 10 17 30.65 1038 10 16 N/A
1:35 am 01:35 Clear 10 -12 1 -17 67 67 NW 12 19 30.68 1039 10 16 N/A
1:54 am 01:54 Clear 10 -12 1 -17 67 67 WNW 14 22 30.68 1039 10 16 N/A
2:15 am 02:15 Clear 9 -13 1 -17 72 72 NW 10 17 30.68 1039 10 16 N/A
2:35 am 02:35 Clear 9 -13 1 -17 72 72 NW 8 13 30.68 1039 10 16 N/A
2:55 am 02:55 Clear 9 -13 1 -17 72 72 NW 7 11 30.68 1039 10 16 N/A
3:15 am 03:15 Clear 9 -13 N/A 66 66 NW 7 11 30.68 1039 10 16 N/A
3:34 am 03:34 Clear 7 -14 N/A 72 72 WNW 7 11 30.71 1040 10 16 N/A
3:55 am 03:55 Clear 7 -14 N/A 72 72 WNW 9 15 30.71 1040 10 16 N/A
4:15 am 04:15 Clear 7 -14 N/A 72 72 NW 8 13 30.71 1040 10 16 N/A
4:35 am 04:35 Clear 7 -14 N/A 72 72 WNW 9 15 30.71 1040 10 16 N/A
4:55 am 04:55 Clear 7 -14 N/A 72 72 WNW 8 13 30.71 1040 10 16 N/A
5:15 am 05:15 Clear 5 -15 -2 -19 72 72 WNW 8 13 30.71 1040 10 16 N/A
5:35 am 05:35 Clear 5 -15 -2 -19 72 72 WNW 8 13 30.71 1040 10 16 N/A
5:55 am 05:55 Clear 5 -15 -2 -19 72 72 WNW 7 11 30.77 1042 10 16 N/A
6:14 am 06:14 Clear 5 -15 -2 -19 72 72 WNW 8 13 30.77 1042 10 16 N/A
6:35 am 06:35 Clear 5 -15 -2 -19 72 72 WNW 8 13 30.77 1042 10 16 N/A
6:55 am 06:55 Clear 5 -15 -2 -19 72 72 NW 6 9 30.77 1042 10 16 N/A
7:15 am 07:15 Clear 3 -16 -4 -20 72 72 W 8 13 30.77 1042 10 16 N/A
7:35 am 07:35 Clear 3 -16 -2 -19 78 78 WNW 7 11 30.77 1042 10 16 N/A
7:55 am 07:55 Clear 3 -16 -2 -19 78 78 WNW 6 9 30.80 1043 10 16 N/A
8:15 am 08:15 Sunny 3 -16 -4 -20 72 72 WNW 5 7 30.80 1043 10 16 N/A
8:35 am 08:35 Sunny N/A -4 -20 84 84 W 5 7 30.80 1043 10 16 N/A
8:55 am 08:55 Sunny 5 -15 -2 -19 72 72 W 7 11 30.80 1043 10 16 N/A
9:15 am 09:15 Sunny 7 -14 N/A 72 72 W 6 9 30.80 1043 10 16 N/A
9:35 am 09:35 Sunny 9 -13 N/A 66 66 WNW 3 6 30.80 1043 10 16 N/A
9:55 am 09:55 Sunny 9 -13 N/A 66 66 WNW 3 6 30.80 1043 10 16 N/A
10:14 am 10:14 Sunny 10 -12 1 -17 67 67 W 5 7 30.80 1043 10 16 N/A
10:35 am 10:35 Sunny 12 -11 1 -17 62 62 WSW 6 9 30.83 1044 10 16 N/A
10:55 am 10:55 Sunny 12 -11 1 -17 62 62 WSW 6 9 30.83 1044 10 16 N/A
11:15 am 11:15 Sunny 14 -10 3 -16 62 62 W 6 9 30.83 1044 10 16 N/A
11:34 am 11:34 Sunny 16 -9 3 -16 57 57 W 3 6 30.83 1044 10 16 N/A
11:55 am 11:55 Sunny 16 -9 3 -16 57 57 N N/A 30.83 1044 10 16 N/A
12:14 pm 12:14 Sunny 16 -9 1 -17 53 53 N N/A 30.80 1043 10 16 N/A
12:35 pm 12:35 Sunny 18 -8 1 -17 49 49 WSW 6 9 30.80 1043 10 16 N/A
12:55 pm 12:55 Sunny 16 -9 N/A 48 48 N N/A 30.77 1042 10 16 N/A
1:15 pm 13:15 Sunny 18 -8 1 -17 49 49 SSE 3 6 30.77 1042 10 16 N/A
1:35 pm 13:35 Sunny 18 -8 N/A 45 45 SSE 3 6 30.77 1042 10 16 N/A
1:55 pm 13:55 Sunny 18 -8 -2 -19 41 41 S 3 6 30.74 1041 10 16 N/A
2:15 pm 14:15 Sunny 18 -8 N/A 45 45 N N/A 30.74 1041 10 16 N/A
2:35 pm 14:35 Sunny 18 -8 N/A 45 45 SSW 5 7 30.74 1041 10 16 N/A
2:55 pm 14:55 Sunny 18 -8 1 -17 49 49 SSE 5 7 30.74 1041 10 16 N/A
3:15 pm 15:15 Sunny 18 -8 3 -16 53 53 S 6 9 30.74 1041 10 16 N/A
3:35 pm 15:35 Sunny 18 -8 3 -16 53 53 S 8 13 30.74 1041 10 16 N/A
3:55 pm 15:55 Sunny 18 -8 3 -16 53 53 S 7 11 30.74 1041 10 16 N/A
4:15 pm 16:15 Sunny 18 -8 3 -16 53 53 S 7 11 30.74 1041 10 16 N/A
4:34 pm 16:34 Sunny 18 -8 1 -17 49 49 S 5 7 30.74 1041 10 16 N/A
4:55 pm 16:55 Sunny 16 -9 1 -17 53 53 S 7 11 30.74 1041 10 16 N/A
5:15 pm 17:15 Sunny 14 -10 1 -17 57 57 S 5 7 30.74 1041 10 16 N/A
5:35 pm 17:35 Sunny 14 -10 1 -17 57 57 SSE 5 7 30.74 1041 10 16 N/A
5:55 pm 17:55 Clear 12 -11 3 -16 67 67 SSE 6 9 30.74 1041 10 16 N/A
6:15 pm 18:15 Clear 12 -11 3 -16 67 67 SSE 6 9 30.74 1041 10 16 N/A
6:35 pm 18:35 Clear 12 -11 1 -17 62 62 SSE 5 7 30.74 1041 10 16 N/A
6:55 pm 18:55 Clear 12 -11 1 -17 62 62 SE 5 7 30.71 1040 10 16 N/A
7:15 pm 19:15 Clear 10 -12 1 -17 67 67 SSE 5 7 30.74 1041 10 16 N/A
7:34 pm 19:34 Clear 10 -12 1 -17 67 67 SE 5 7 30.71 1040 10 16 N/A
7:55 pm 19:55 Clear 10 -12 1 -17 67 67 SSE 5 7 30.71 1040 10 16 N/A
8:15 pm 20:15 Clear 12 -11 3 -16 67 67 SSE 5 7 30.71 1040 10 16 N/A
8:35 pm 20:35 Partly Cloudy 14 -10 3 -16 62 62 SSE 7 11 30.71 1040 10 16 N/A
8:55 pm 20:55 Mostly Cloudy 14 -10 3 -16 62 62 S 7 11 30.71 1040 10 16 N/A
9:15 pm 21:15 Cloudy 14 -10 5 -15 67 67 S 7 11 30.71 1040 10 16 N/A
9:35 pm 21:35 Mostly Cloudy 14 -10 5 -15 67 67 S 7 11 30.71 1040 10 16 N/A
9:55 pm 21:55 Cloudy 14 -10 5 -15 67 67 S 6 9 30.71 1040 10 16 N/A
10:15 pm 22:15 Cloudy 14 -10 5 -15 67 67 SSE 7 11 30.68 1039 10 16 N/A
10:35 pm 22:35 Cloudy 14 -10 5 -15 67 67 SSE 9 15 30.65 1038 10 16 N/A
10:54 pm 22:54 Cloudy 14 -10 7 -14 73 73 SSE 8 13 30.65 1038 10 16 N/A
11:15 pm 23:15 Cloudy 16 -9 7 -14 67 67 S 8 13 30.65 1038 10 16 N/A
11:35 pm 23:35 Cloudy 16 -9 7 -14 67 67 S 8 13 30.65 1038 10 16 N/A
11:55 pm 23:55 Cloudy 16 -9 7 -14 67 67 S 8 13 30.62 1037 10 16 N/A

Powered by AerisWeather